This is the latest recevied weather packets stored in our database for station/object DJ0JJ-11. If no packets are shown the sender has not sent any weather packets the latest 10 day(s).
| Time | Temp. | Humidity | Pressure | Rain* | Wind** | Luminosity | Snow |
|---|---|---|---|---|---|---|---|
| 1787424627 | 19.44° C | 62% | 1022.8 hPa | - | - | - | - |
| 1787423726 | 20° C | 62% | 1022.6 hPa | - | - | - | - |
| 1787422826 | 20° C | 57% | 1022.6 hPa | - | - | - | - |
| 1787421926 | 21.11° C | 53% | 1022.4 hPa | - | - | - | - |
| 1787421069 | 21.67° C | 48% | 1022.4 hPa | - | - | - | - |
| 1787421026 | 21.67° C | 48% | 1022.4 hPa | - | - | - | - |
| 1787420126 | 21.67° C | 46% | 1022.4 hPa | - | - | - | - |
| 1787419226 | 22.22° C | 44% | 1022.3 hPa | - | - | - | - |
| 1787418326 | 22.78° C | 44% | 1022.1 hPa | - | - | - | - |
| 1787417426 | 23.33° C | 43% | 1022 hPa | - | - | - | - |
| 1787416526 | 23.33° C | 43% | 1022 hPa | - | - | - | - |
| 1787415626 | 22.78° C | 44% | 1022 hPa | - | - | - | - |
| 1787414725 | 23.33° C | 45% | 1022 hPa | - | - | - | - |
| 1787413825 | 23.33° C | 46% | 1022 hPa | - | - | - | - |
| 1787412925 | 22.22° C | 45% | 1021.9 hPa | - | - | - | - |
| 1787412025 | 22.22° C | 47% | 1022 hPa | - | - | - | - |
| 1787411125 | 22.78° C | 46% | 1022 hPa | - | - | - | - |
| 1787410225 | 22.22° C | 50% | 1022 hPa | - | - | - | - |
| 1787409325 | 22.22° C | 50% | 1022.1 hPa | - | - | - | - |
| 1787408425 | 22.22° C | 53% | 1022.2 hPa | - | - | - | - |
| 1787407524 | 21.67° C | 54% | 1022 hPa | - | - | - | - |
| 1787406627 | 21.11° C | 56% | 1022.1 hPa | - | - | - | - |
| 1787405727 | 20.56° C | 57% | 1022.2 hPa | - | - | - | - |
| 1787404827 | 20° C | 58% | 1022.2 hPa | - | - | - | - |
| 1787403927 | 20° C | 60% | 1022.1 hPa | - | - | - | - |
* Rain since midnight (hover to see other rain measurements)
** Current wind speed in m/s (hover to see current wind gust speed)